Orbital Elements at Epoch 2459000.5 (2020-May-31.0) TDB
Reference: JPL 12 (heliocentric ecliptic J2000)
Element | Value | Uncertainty (1-sigma) | Units |
e | .2626034703169066 | 1.0386e-07 | |
a | 2.55803224796896 | 2.7704e-08 | au |
q | 1.886284102469753 | 2.8242e-07 | au |
i | 3.484778327990963 | 4.3336e-06 | deg |
node | 250.2627072011392 | 0.00015978 | deg |
peri | 151.3239873939716 | 0.00016481 | deg |
M | 110.599485304753 | 4.2663e-05 | deg |
tp | 2458541.399194539467 (2019-Feb-26.89919454) | 0.00017014 | TDB |
period | 1494.367623053387 4.09 | 2.4277e-05 6.647e-08 | d yr |
n | .2409045769235987 | 3.9136e-09 | deg/d |
Q | 3.229780393468167 | 3.4979e-08 | au |
|
| | Orbit Determination Parameters
Additional Information
|